Simultaneous Nadir Overpasses (SNOs) Predictions

Prediction of SNOs between AQUA and NPP Satellite Orbit:

Table of predicted SNOs for the next 14.0 days since TLE Epoch: 1/16/2021
Index Date (AQUA) Time (AQUA) Lat,Lon (AQUA) SZA (AQUA ) Date (NPP) Time (NPP) Lat,Lon (NPP) SZA (NPP ) Distance(km) Time Diff (sec)
1 01/16/2021 21:48:46 75.35, 89.99 118.70 01/16/2021 21:47:35 75.35, 90.00 118.76 0.32 71
2 01/16/2021 22:37:53 -76.37, -99.28 62.45 01/16/2021 22:37:59 -76.37, -99.32 62.44 1.13 6
3 01/19/2021 14:05:08 75.61,-153.38 117.92 01/19/2021 14:04:24 75.60,-153.45 117.98 2.10 44
4 01/19/2021 14:54:09 -76.92, 18.48 63.56 01/19/2021 14:54:41 -76.92, 18.57 63.61 2.38 32
5 01/22/2021 06:21:23 76.26, -35.52 116.66 01/22/2021 06:21:05 76.27, -35.46 116.66 1.69 18
6 01/22/2021 07:10:34 -77.07, 134.93 64.28 01/22/2021 07:11:33 -77.07, 134.94 64.34 0.32 59
7 01/24/2021 21:48:48 -75.19, -90.45 62.73 01/24/2021 21:47:40 -75.18, -90.53 62.64 2.42 68
8 01/24/2021 22:37:46 76.51, 81.18 115.79 01/24/2021 22:37:55 76.51, 81.18 115.78 0.09 9
9 01/27/2021 14:05:01 -75.93, 27.58 64.18 01/27/2021 14:04:19 -75.94, 27.63 64.16 1.64 42



Historial Predications of SNOs between AQUA and NPP
